Change the Weather History Date:

Saturday, November 10, 2012

  Actual Average Record
Temperature  
Mean Temperature 62 °F -  
Max Temperature 75 °F 43 °F 75 °F (2012)
Min Temperature 50 °F 27 °F 10 °F (1979)
Degree Days  
Heating Degree Days 2    
Growing Degree Days 12 (Base 50)    
Moisture  
Dew Point 51 °F    
Average Humidity 70    
Maximum Humidity 94    
Minimum Humidity 47    
Precipitation  
Precipitation 0.00 in - - ()
Sea Level Pressure  
Sea Level Pressure 29.72 in    
Wind  
Wind Speed 16 mph (SSE)    
Max Wind Speed 24 mph    
Max Gust Speed 32 mph    
Visibility 9 miles    
Events Rain    
Averages and records for this station are not official NWS values.
T = Trace of Precipitation, MM = Missing Value Source: NWS Daily Summary

Daily Weather History Graph

Daily Weather History Graph

Search for Another Location

Airport or City:

Trip Planner

Search our weather history database for the weather conditions in past years. The results will help you decide how hot, cold, wet, or windy it might be!

Date:

Astronomy

Nov. 10, 2012 Rise Set
Actual Time 6:53 AM CST 4:49 PM CST
Civil Twilight 6:23 AM CST 5:19 PM CST
Nautical Twilight 5:49 AM CST 5:53 PM CST
Astronomical Twilight 5:16 AM CST 6:26 PM CST
Moon 2:54 AM CST (11/10) 2:40 PM CST (11/10)
Length of Visible Light 10h 55m
Length of Day
9h 55m
Waning Crescent, 14% of the Moon is Illuminated
Nov 10
Waning Crescent
Nov 13
New
Nov 20
First Quarter
Nov 28
Full
Dec 6
Last Quarter

Hourly Weather History & Observations

Time (CST) Temp. Dew Point Humidity Pressure Visibility Wind Dir Wind Speed Gust Speed Precip Events Conditions
12:36 AM 51.8 °F 44.6 °F 76% 29.87 in 7.0 mi East 13.8 mph 20.7 mph N/A   Light Drizzle
12:56 AM 51.8 °F 44.6 °F 76% 29.86 in 7.0 mi ESE 12.7 mph 19.6 mph N/A   Clear
1:16 AM 51.8 °F 44.6 °F 76% 29.86 in 7.0 mi ESE 13.8 mph - N/A   Clear
1:36 AM 51.8 °F 44.6 °F 76% 29.85 in 7.0 mi ESE 15.0 mph 18.4 mph N/A   Clear
1:56 AM 51.8 °F 44.6 °F 76% 29.85 in 7.0 mi East 13.8 mph 19.6 mph N/A   Clear
2:17 AM 51.8 °F 44.6 °F 76% 29.85 in 7.0 mi East 16.1 mph 21.9 mph N/A   Clear
2:40 AM 51.8 °F 44.6 °F 76% 29.84 in 7.0 mi East 15.0 mph 21.9 mph N/A   Clear
2:57 AM 51.8 °F 44.6 °F 76% 29.84 in 7.0 mi East 15.0 mph 19.6 mph N/A   Clear
3:17 AM 50.0 °F 44.6 °F 82% 29.83 in 5.0 mi East 15.0 mph - N/A   Haze
3:38 AM 50.0 °F 44.6 °F 82% 29.82 in 5.0 mi East 16.1 mph - N/A   Haze
3:58 AM 50.0 °F 46.4 °F 87% 29.81 in 5.0 mi ESE 13.8 mph 19.6 mph N/A   Clear
4:15 AM 50.0 °F 44.6 °F 82% 29.81 in 5.0 mi ESE 15.0 mph - N/A   Clear
4:35 AM 50.0 °F 46.4 °F 87% 29.80 in 5.0 mi ESE 17.3 mph 21.9 mph N/A   Clear
4:55 AM 50.0 °F 46.4 °F 87% 29.80 in 5.0 mi ESE 13.8 mph - N/A   Clear
5:15 AM 50.0 °F 46.4 °F 87% 29.79 in 5.0 mi ESE 13.8 mph - N/A   Clear
5:35 AM 50.0 °F 46.4 °F 87% 29.79 in 5.0 mi ESE 13.8 mph 19.6 mph N/A   Clear
5:55 AM 50.0 °F 48.2 °F 94% 29.79 in 5.0 mi ESE 11.5 mph - N/A   Clear
6:15 AM 50.0 °F 48.2 °F 94% 29.78 in 5.0 mi ESE 13.8 mph 19.6 mph N/A   Clear
6:35 AM 51.8 °F 50.0 °F 94% 29.78 in 5.0 mi SE 16.1 mph - N/A   Clear
6:55 AM 51.8 °F 50.0 °F 94% 29.78 in 5.0 mi SE 15.0 mph - N/A   Clear
7:15 AM 51.8 °F 50.0 °F 94% 29.78 in 5.0 mi SE 13.8 mph - N/A   Clear
7:35 AM 53.6 °F 51.8 °F 94% 29.77 in 7.0 mi SE 13.8 mph - N/A   Clear
7:55 AM 53.6 °F 51.8 °F 94% 29.77 in 10.0 mi SE 16.1 mph - N/A   Clear
8:15 AM 55.4 °F 51.8 °F 88% 29.77 in 10.0 mi SE 17.3 mph - N/A   Clear
8:35 AM 55.4 °F 51.8 °F 88% 29.76 in 10.0 mi SE 16.1 mph - N/A   Clear
9:15 AM 59.0 °F 53.6 °F 82% 29.75 in 10.0 mi SSE 17.3 mph 21.9 mph N/A   Clear
9:35 AM 60.8 °F 53.6 °F 77% 29.74 in 10.0 mi SSE 18.4 mph 25.3 mph N/A   Clear
9:55 AM 62.6 °F 53.6 °F 72% 29.74 in 10.0 mi SSE 18.4 mph 26.5 mph N/A   Clear
10:15 AM 62.6 °F 53.6 °F 72% 29.74 in 10.0 mi SSE 20.7 mph 24.2 mph N/A   Clear
10:35 AM 64.4 °F 53.6 °F 68% 29.74 in 10.0 mi South 19.6 mph 24.2 mph N/A   Clear
10:55 AM 64.4 °F 53.6 °F 68% 29.72 in 10.0 mi South 19.6 mph 26.5 mph N/A   Clear
11:15 AM 68.0 °F 53.6 °F 60% 29.72 in 10.0 mi SSE 17.3 mph 23.0 mph N/A   Clear
11:35 AM 68.0 °F 53.6 °F 60% 29.71 in 10.0 mi South 18.4 mph 25.3 mph N/A   Clear
11:55 AM 68.0 °F 53.6 °F 60% 29.69 in 10.0 mi South 19.6 mph 24.2 mph N/A   Clear
12:15 PM 69.8 °F 53.6 °F 56% 29.68 in 10.0 mi South 19.6 mph 24.2 mph N/A   Clear
12:35 PM 71.6 °F 53.6 °F 53% 29.67 in 10.0 mi South 23.0 mph - N/A   Clear
12:55 PM 71.6 °F 55.4 °F 57% 29.67 in 10.0 mi South 20.7 mph 24.2 mph N/A   Clear
1:15 PM 73.4 °F 55.4 °F 53% 29.67 in 10.0 mi South 23.0 mph 27.6 mph N/A   Clear
1:35 PM 75.2 °F 53.6 °F 47% 29.67 in 10.0 mi South 21.9 mph 26.5 mph N/A   Clear
1:55 PM 73.4 °F 53.6 °F 50% 29.67 in 10.0 mi South 20.7 mph 27.6 mph N/A   Clear
2:15 PM 73.4 °F 53.6 °F 50% 29.67 in 10.0 mi SSW 24.2 mph 28.8 mph N/A   Clear
2:35 PM 73.4 °F 53.6 °F 50% 29.68 in 10.0 mi South 20.7 mph 27.6 mph N/A   Clear
2:55 PM 71.6 °F 53.6 °F 53% 29.68 in 10.0 mi South 21.9 mph 28.8 mph N/A   Clear
3:15 PM 71.6 °F 53.6 °F 53% 29.67 in 10.0 mi South 16.1 mph - N/A   Clear
3:35 PM 69.8 °F 55.4 °F 60% 29.67 in 10.0 mi SSE 15.0 mph - N/A Rain Light Rain
3:55 PM 68.0 °F 55.4 °F 64% 29.65 in 10.0 mi SE 13.8 mph - N/A   Clear
4:15 PM 68.0 °F 55.4 °F 64% 29.65 in 10.0 mi SSE 17.3 mph 23.0 mph N/A   Clear
4:35 PM 68.0 °F 55.4 °F 64% 29.65 in 10.0 mi SSE 15.0 mph 21.9 mph N/A   Clear
4:55 PM 68.0 °F 55.4 °F 64% 29.65 in 10.0 mi SSE 12.7 mph - N/A   Clear
5:15 PM 66.2 °F 55.4 °F 68% 29.66 in 10.0 mi SSE 18.4 mph 24.2 mph N/A   Clear
5:55 PM 66.2 °F 55.4 °F 68% 29.66 in 10.0 mi South 17.3 mph 23.0 mph N/A   Clear
6:15 PM 66.2 °F 55.4 °F 68% 29.67 in 10.0 mi SSE 18.4 mph 27.6 mph N/A   Clear
6:35 PM 66.2 °F 53.6 °F 64% 29.68 in 10.0 mi SSE 19.6 mph 24.2 mph N/A   Clear
6:55 PM 64.4 °F 53.6 °F 68% 29.67 in 10.0 mi South 16.1 mph 26.5 mph N/A   Clear
7:15 PM 64.4 °F 53.6 °F 68% 29.65 in 10.0 mi SSE 19.6 mph 27.6 mph N/A   Clear
7:35 PM 64.4 °F 53.6 °F 68% 29.65 in 10.0 mi South 18.4 mph 25.3 mph N/A   Clear
7:55 PM 64.4 °F 53.6 °F 68% 29.65 in 10.0 mi South 19.6 mph 24.2 mph N/A   Clear
8:15 PM 64.4 °F 51.8 °F 64% 29.63 in 10.0 mi South 19.6 mph 24.2 mph N/A   Clear
8:35 PM 64.4 °F 51.8 °F 64% 29.63 in 10.0 mi South 18.4 mph 24.2 mph N/A   Clear
8:55 PM 62.6 °F 50.0 °F 63% 29.64 in 10.0 mi South 18.4 mph - N/A   Clear
9:15 PM 64.4 °F 50.0 °F 59% 29.64 in 10.0 mi South 18.4 mph 24.2 mph N/A   Clear
9:35 PM 62.6 °F 50.0 °F 63% 29.64 in 10.0 mi South 21.9 mph 25.3 mph N/A   Clear
9:55 PM 62.6 °F 48.2 °F 59% 29.64 in 10.0 mi South 17.3 mph - N/A   Clear
10:15 PM 62.6 °F 46.4 °F 55% 29.64 in 10.0 mi South 19.6 mph 25.3 mph N/A   Clear
10:35 PM 64.4 °F 46.4 °F 52% 29.65 in 10.0 mi South 20.7 mph 27.6 mph N/A   Clear
10:55 PM 64.4 °F 46.4 °F 52% 29.66 in 10.0 mi South 20.7 mph 32.2 mph N/A   Clear
11:15 PM 62.6 °F 46.4 °F 55% 29.66 in 10.0 mi South 19.6 mph 23.0 mph N/A   Clear
11:35 PM 62.6 °F 46.4 °F 55% 29.68 in 10.0 mi South 19.6 mph 25.3 mph N/A   Clear
11:55 PM 62.6 °F 46.4 °F 55% 29.69 in 10.0 mi South 19.6 mph 27.6 mph N/A   Clear